sat.trackr.live / text

‹ back to catalog

STARLINK-35476

NORAD 66825 · 2025-280E

PAYLOAD ACTIVE UNKNOWN

§ Identity

Operator
Country
US
Launch date
2025-12-02
Launch site
AFWTR
Launch vehicle
Mass (kg)
RCS (m²)

Purposes: comms

External: N2YO · Heavens-Above · Gunter

§ Orbital elements

Epoch: 2026-09-20T13:40:56.178624Z

Period
96.11 min
Inclination
70.0020°
Eccentricity
0.0003000
Mean motion
14.98337083 rev/d
Perigee alt
569.9 km
Apogee alt
574.1 km
Semi-major
6,950.2 km
B*
1.8689e-4
RAAN
203.2304°
Arg perigee
268.8230°
Mean anomaly
91.2585°
Rev number
4,525

§ Raw data

STARLINK-354761 66825U 25280E   26263.57009466  .00002138  00000+0  18689-3 0  99982 66825  70.0020 203.2304 0003000 268.8230  91.2585 14.98337083 45256

JSON: /api/v1/satellites/66825 · /tle

For live sub-satellite position, see the globe view (requires WebGL).

§ Visibility from observer

Set your observer location to see the next 7 days of passes ≥ 10°. The values pass through the URL so the page stays shareable.

No JS? Fill the form by hand. The geolocation button needs JavaScript.